Location: Helsinki
(60.1699°N, 24.9384°E)
Time: 15:44:57
(UTC+02:00)

Tiros 1 - Pass Details

Date: 02 October 2022
Orbit: 629 x 662 km, 48.4° (Epoch: 07 December)

Event Time Altitude Azimuth Distance (km) Brightness Sun altitude
Rises 04:08:54 0° 246° (WSW) 2,986 - -23.9°
Reaches altitude 10° 04:11:46 10° 230° (SW) 2,070 - -23.6°
Maximum altitude 04:15:11 20° 184° (S) 1,517 - -23.3°
Exits shadow 04:17:15 15° 152° (SSE) 1,734 9.2 -23.1°
Drops below altitude 10° 04:18:35 10° 138° (SE) 2,055 9.8 -23.0°
Sets 04:21:25 0° 121° (ESE) 2,958 10.8 -22.7°
